Location: Newark
(42.8481°N, 0.4872°E)
Time: 08:10:08
(UTC+00:00)

SR - Pass Details

Date: 03 November 2020
Orbit: 579 x 876 km, 66.7° (Epoch: 29 November)

Event Time Altitude Azimuth Distance (km) Brightness Sun altitude
Rises 02:37:43 0° 270° (W) 2,807 - -43.4°
Reaches altitude 10° 02:41:36 10° 306° (NW) 1,946 - -42.7°
Maximum altitude 02:42:55 11° 324° (NW) 1,887 - -42.5°
Drops below altitude 10° 02:44:15 10° 342° (NNW) 1,982 - -42.3°
Exits shadow 02:48:15 - 17° (NNE) 2,929 ? -41.6°
Sets 02:48:22 0° 18° (NNE) 2,962 ? -41.6°
